Location: Bothell
(47.7630°N, 122.2040°W)
Time: 16:38:58
(UTC-07:00)

Amateur Radio Satellites - All Passes

Search period start: 31 October 2014 16:08
Search period end: 01 November 2014 16:08
Location: Bothell, 47.7630°N, 122.2040°W

Satellite Date Start Highest point End Downlink Frequencies (MHz)
Time Altitude Azimuth
AO-Echo 31 Oct 16:09:20 16:10:14 10° 276° (W) 16:11:09 ?
ITAMSAT 1 31 Oct 16:15:51 16:17:49 12° 274° (W) 16:19:47 435.822 SSB
Uosat F 31 Oct 16:17:08 16:22:05 60° 70° (ENE) 16:27:04 435.120 FM
UOSAT-12 31 Oct 16:37:51 16:40:04 13° 342° (NNW) 16:42:18 437.025 FM, 437.400 FM
AO-7 31 Oct 16:47:12 16:55:24 65° 255° (WSW) 17:03:40 29.400 - 29.500 MHz
ISS 31 Oct 17:14:45 17:17:29 23° 220° (SW) 17:20:11 145.800 FM
Hamsat 31 Oct 17:20:46 17:24:31 33° 68° (ENE) 17:28:16 145.90 MHz
KITSAT 1 31 Oct 17:22:55 17:29:23 25° 20° (NNE) 17:35:50 435.175 FM
JAS-2 31 Oct 17:25:59 17:32:23 71° 71° (ENE) 17:39:40 435.800 - 435.900 CW/SSB, 435.910 FM
SO-50 31 Oct 17:38:27 17:41:20 16° 23° (NNE) 17:44:14 436.795 FM
Oscar 10/S400 31 Oct 17:42:19 18:02:55 48° 176° (S) 20:40:57 145.825 - 145.975 CW/USB, Beacon 145.810 USB
Uosat F 31 Oct 17:57:37 18:01:16 20° 269° (W) 18:04:58 435.120 FM
SO-67 31 Oct 18:03:09 18:04:08 11° 61° (ENE) 18:05:06 435.3500 MHz FM
UOSAT-12 31 Oct 18:21:15 18:22:20 11° 8° (N) 18:23:25 437.025 FM, 437.400 FM
OPAL 31 Oct 18:22:16 18:27:04 48° 102° (ESE) 18:31:50 ?
STRAND 1 31 Oct 18:41:54 18:44:17 13° 87° (E) 18:46:39 ?
AO-7 31 Oct 18:46:03 18:49:51 14° 276° (W) 18:53:41 29.400 - 29.500 MHz
Hamsat 31 Oct 18:57:01 19:00:31 26° 266° (W) 19:04:01 145.90 MHz
HO-68 31 Oct 18:59:27 19:03:52 18° 46° (NE) 19:08:19 435.675 MHz FM
JAS-2 31 Oct 19:13:03 19:18:13 25° 273° (W) 19:23:53 435.800 - 435.900 CW/SSB, 435.910 FM
SO-50 31 Oct 19:18:19 19:23:01 49° 45° (NE) 19:27:45 436.795 FM
KITSAT 1 31 Oct 19:18:40 19:26:39 58° 46° (NE) 19:34:35 435.175 FM
SO-67 31 Oct 19:33:12 19:36:36 63° 259° (W) 19:40:02 435.3500 MHz FM
UOSAT-12 31 Oct 20:00:33 20:04:16 22° 32° (NNE) 20:07:56 437.025 FM, 437.400 FM
OPAL 31 Oct 20:01:39 20:05:43 26° 301° (WNW) 20:09:46 ?
STRAND 1 31 Oct 20:19:01 20:24:13 90° 94° (E) 20:29:21 ?
HO-68 31 Oct 20:43:16 20:50:21 68° 68° (ENE) 20:57:30 435.675 MHz FM
RS-15 31 Oct 20:59:02 21:09:10 45° 111° (ESE) 21:19:14 29.354 - 29.394 USB, Beacon 29.352 USB
SO-50 31 Oct 20:59:13 21:03:24 30° 244° (WSW) 21:07:37 436.795 FM
UKube-1 31 Oct 21:04:37 21:08:24 30° 65° (ENE) 21:12:13 145.840 MHz, 145.915 MHz
KITSAT 1 31 Oct 21:14:26 21:21:51 42° 248° (WSW) 21:29:14 435.175 FM
ZACube-1 31 Oct 21:15:24 21:18:23 18° 61° (ENE) 21:21:19 437.345 MHz
Oscar 11 31 Oct 21:38:42 21:42:56 57° 72° (ENE) 21:47:10 145.825 FM, Beacon 2401.500 USB
UOSAT-12 31 Oct 21:40:16 21:45:02 88° 233° (SW) 21:49:42 437.025 FM, 437.400 FM
FUNcube-1 31 Oct 21:56:39 22:00:52 40° 69° (ENE) 22:05:00 145.950 - 145.970 MHz USB
MaSat-1 31 Oct 21:57:40 22:00:42 23° 111° (ESE) 22:03:30 437.345 MHz
STRAND 1 31 Oct 21:59:41 22:02:42 16° 305° (NW) 22:05:41 ?
HO-68 31 Oct 22:32:42 22:38:37 27° 268° (W) 22:44:36 435.675 MHz FM
UKube-1 31 Oct 22:40:39 22:44:33 32° 263° (W) 22:48:29 145.840 MHz, 145.915 MHz
ZACube-1 31 Oct 22:49:53 22:54:22 61° 259° (W) 22:58:46 437.345 MHz
RS-15 31 Oct 23:10:15 23:21:07 65° 316° (NW) 23:32:05 29.354 - 29.394 USB, Beacon 29.352 USB
Oscar 11 31 Oct 23:16:47 23:19:29 16° 270° (W) 23:22:11 145.825 FM, Beacon 2401.500 USB
UOSAT-12 31 Oct 23:22:14 23:24:27 13° 251° (WSW) 23:26:40 437.025 FM, 437.400 FM
AO-40 31 Oct 23:27:36 00:13:05 12° 234° (SW) 01:10:28 Beacon 2401.320
MaSat-1 31 Oct 23:32:37 23:35:59 32° 306° (NW) 23:39:02 437.345 MHz
FUNcube-1 31 Oct 23:33:43 23:37:22 24° 266° (W) 23:40:59 145.950 - 145.970 MHz USB
JAS-1B 01 Nov 01:07:47 01:12:04 16° 88° (E) 01:16:42 435.800 - 435.900 CW/SSB
Oscar 19 01 Nov 01:15:26 01:16:26 11° 85° (E) 01:17:27 437.125 CW, 437.150 USB
RS-15 01 Nov 01:26:18 01:35:59 34° 348° (NNW) 01:45:52 29.354 - 29.394 USB, Beacon 29.352 USB
Oscar 16 01 Nov 01:59:55 02:04:18 28° 94° (E) 02:08:40 437.025 USB, Beacon 2401.1428
Sapphire 01 Nov 02:16:53 02:21:43 34° 112° (ESE) 02:26:35 437.095 MHz 1200 baud AX-25 AFSK
AO-Echo 01 Nov 02:29:35 02:34:13 30° 94° (E) 02:38:48 ?
Uribyol 2 01 Nov 02:34:09 02:38:26 25° 93° (E) 02:42:39 436.500 FM
PCSat 01 Nov 02:37:56 02:43:11 54° 117° (ESE) 02:48:28 145.825 MHz
ITAMSAT 1 01 Nov 02:42:10 02:46:38 28° 94° (E) 02:51:03 435.822 SSB
Oscar 19 01 Nov 02:51:31 02:56:40 76° 104° (ESE) 03:01:47 437.125 CW, 437.150 USB
JAS-1B 01 Nov 02:56:28 03:03:29 76° 104° (ESE) 03:11:55 435.800 - 435.900 CW/SSB
AO-27 01 Nov 03:29:33 03:34:48 71° 103° (ESE) 03:40:00 436.795 MHz FM
Oscar 16 01 Nov 03:38:59 03:43:49 43° 293° (WNW) 03:48:38 437.025 USB, Beacon 2401.1428
RS-15 01 Nov 03:42:00 03:52:07 39° 22° (NNE) 04:02:31 29.354 - 29.394 USB, Beacon 29.352 USB
Gurwin Techsat 1B 01 Nov 03:48:58 03:54:14 59° 101° (E) 03:59:28 435.225 FM
TMSAT-1 01 Nov 03:54:54 04:00:05 50° 99° (E) 04:05:13 436.925 FM
Sapphire 01 Nov 03:59:50 04:05:02 46° 312° (NW) 04:10:16 437.095 MHz 1200 baud AX-25 AFSK
OPAL 01 Nov 04:03:28 04:07:13 21° 57° (ENE) 04:10:56 ?
AO-Echo 01 Nov 04:08:05 04:13:07 44° 292° (WNW) 04:18:07 ?
Uribyol 2 01 Nov 04:13:08 04:18:10 50° 292° (WNW) 04:23:08 436.500 FM
ITAMSAT 1 01 Nov 04:21:20 04:26:19 45° 293° (WNW) 04:31:15 435.822 SSB
PCSat 01 Nov 04:22:01 04:26:52 32° 318° (NW) 04:31:45 145.825 MHz
Uosat F 01 Nov 04:23:00 04:25:37 14° 88° (E) 04:28:13 435.120 FM
Oscar 19 01 Nov 04:32:02 04:35:26 18° 302° (WNW) 04:38:49 437.125 CW, 437.150 USB
JAS-2 01 Nov 04:35:22 04:37:10 11° 77° (ENE) 04:38:57 435.800 - 435.900 CW/SSB, 435.910 FM
AO-7 01 Nov 04:44:56 04:52:29 36° 96° (E) 05:00:00 29.400 - 29.500 MHz
JAS-1B 01 Nov 04:48:06 04:53:40 27° 301° (WNW) 05:00:01 435.800 - 435.900 CW/SSB
AO-27 01 Nov 05:10:04 05:13:47 20° 302° (WNW) 05:17:30 436.795 MHz FM
Gurwin Techsat 1B 01 Nov 05:29:40 05:33:49 24° 300° (WNW) 05:37:58 435.225 FM
Saudisat 1A 01 Nov 05:34:14 05:37:49 25° 115° (ESE) 05:41:26 436.775 MHz
TMSAT-1 01 Nov 05:35:20 05:39:44 27° 298° (WNW) 05:44:06 436.925 FM
OPAL 01 Nov 05:40:37 05:45:40 65° 255° (WSW) 05:50:42 ?
Sapphire 01 Nov 05:46:52 05:49:52 15° 336° (NNW) 05:52:53 437.095 MHz 1200 baud AX-25 AFSK
RS-15 01 Nov 05:55:05 06:06:16 83° 51° (NE) 06:17:55 29.354 - 29.394 USB, Beacon 29.352 USB
Uosat F 01 Nov 05:59:59 06:05:04 84° 286° (WNW) 06:10:07 435.120 FM
STRAND 1 01 Nov 06:00:18 06:04:38 28° 63° (ENE) 06:09:01 ?
PCSat 01 Nov 06:09:57 06:12:04 12° 342° (NNW) 06:14:11 145.825 MHz
JAS-2 01 Nov 06:16:14 06:23:56 54° 98° (E) 06:31:24 435.800 - 435.900 CW/SSB, 435.910 FM
AO-7 01 Nov 06:37:31 06:45:40 61° 297° (WNW) 06:53:49 29.400 - 29.500 MHz
Hamsat 01 Nov 06:38:16 06:42:17 42° 98° (E) 06:46:19 145.90 MHz
Saudisat 1A 01 Nov 07:12:53 07:17:09 48° 314° (NW) 07:21:27 436.775 MHz
MaSat-1 01 Nov 07:38:05 07:40:38 72° 242° (WSW) 07:43:00 437.345 MHz
STRAND 1 01 Nov 07:38:43 07:43:38 45° 261° (W) 07:48:36 ?
Uosat F 01 Nov 07:40:27 07:43:06 14° 305° (NW) 07:45:44 435.120 FM
PCSat 01 Nov 07:57:37 07:58:10 10° 9° (N) 07:58:42 145.825 MHz
JAS-2 01 Nov 08:01:31 08:08:44 42° 298° (WNW) 08:15:49 435.800 - 435.900 CW/SSB, 435.910 FM
RS-15 01 Nov 08:08:12 08:17:34 33° 254° (WSW) 08:27:18 29.354 - 29.394 USB, Beacon 29.352 USB
Hamsat 01 Nov 08:14:46 08:18:00 22° 296° (WNW) 08:21:15 145.90 MHz
SO-67 01 Nov 08:25:47 08:29:16 87° 284° (WNW) 08:32:42 435.3500 MHz FM
AO-7 01 Nov 08:31:41 08:36:53 19° 320° (NW) 08:42:05 29.400 - 29.500 MHz
Saudisat 1A 01 Nov 08:55:24 08:57:46 14° 337° (NNW) 09:00:08 436.775 MHz
Sapphire 01 Nov 09:18:09 09:21:44 17° 29° (NNE) 09:25:17 437.095 MHz 1200 baud AX-25 AFSK
PCSat 01 Nov 09:39:32 09:43:45 22° 35° (NE) 09:47:58 145.825 MHz
JAS-2 01 Nov 09:49:18 09:51:46 12° 319° (NW) 09:54:14 435.800 - 435.900 CW/SSB, 435.910 FM
KITSAT 1 01 Nov 09:53:07 09:58:50 22° 103° (ESE) 10:04:33 435.175 FM
HO-68 01 Nov 09:54:46 10:01:47 51° 100° (E) 10:08:44 435.675 MHz FM
ISS 01 Nov 09:59:03 10:01:29 19° 138° (SE) 10:03:56 145.800 FM
UKube-1 01 Nov 10:24:59 10:28:57 33° 97° (E) 10:32:53 145.840 MHz, 145.915 MHz
ZACube-1 01 Nov 10:36:31 10:39:34 19° 92° (E) 10:42:36 437.345 MHz
Oscar 11 01 Nov 10:58:50 11:03:09 74° 103° (ESE) 11:07:28 145.825 FM, Beacon 2401.500 USB
Sapphire 01 Nov 11:00:54 11:06:18 60° 52° (NE) 11:11:40 437.095 MHz 1200 baud AX-25 AFSK
SO-50 01 Nov 11:16:43 11:20:57 42° 119° (ESE) 11:25:20 436.795 FM
FUNcube-1 01 Nov 11:18:24 11:22:31 51° 100° (E) 11:26:33 145.950 - 145.970 MHz USB
PCSat 01 Nov 11:22:28 11:27:56 89° 58° (ENE) 11:33:22 145.825 MHz
ISS 01 Nov 11:34:30 11:37:50 87° 336° (NNW) 11:41:11 145.800 FM
HO-68 01 Nov 11:42:48 11:49:19 39° 300° (WNW) 11:55:50 435.675 MHz FM
KITSAT 1 01 Nov 11:45:03 11:53:08 87° 124° (ESE) 12:01:16 435.175 FM
Oscar 16 01 Nov 11:46:17 11:46:46 10° 51° (NE) 11:47:15 437.025 USB, Beacon 2401.1428
UOSAT-12 01 Nov 11:57:23 11:59:17 12° 108° (ESE) 12:01:11 437.025 FM, 437.400 FM
JAS-1B 01 Nov 11:59:49 12:02:57 15° 50° (NE) 12:06:10 435.800 - 435.900 CW/SSB
UKube-1 01 Nov 12:01:17 12:05:04 29° 295° (WNW) 12:08:49 145.840 MHz, 145.915 MHz
ZACube-1 01 Nov 12:12:12 12:16:13 44° 290° (WNW) 12:20:10 437.345 MHz
Saudisat 1A 01 Nov 12:18:05 12:20:46 16° 26° (NNE) 12:23:27 436.775 MHz
ITAMSAT 1 01 Nov 12:28:50 12:29:59 11° 50° (NE) 12:31:08 435.822 SSB
Oscar 19 01 Nov 12:34:01 12:38:04 24° 61° (ENE) 12:42:07 437.125 CW, 437.150 USB
Oscar 11 01 Nov 12:36:28 12:38:48 14° 301° (WNW) 12:41:07 145.825 FM, Beacon 2401.500 USB
Sapphire 01 Nov 12:44:59 12:49:21 25° 251° (WSW) 12:53:41 437.095 MHz 1200 baud AX-25 AFSK
FUNcube-1 01 Nov 12:55:40 12:58:32 18° 298° (WNW) 13:01:23 145.950 - 145.970 MHz USB
SO-50 01 Nov 12:57:25 13:01:36 34° 320° (NW) 13:05:55 436.795 FM
PCSat 01 Nov 13:07:27 13:10:36 16° 256° (WSW) 13:13:44 145.825 MHz
ISS 01 Nov 13:11:35 13:14:46 41° 356° (N) 13:17:58 145.800 FM
AO-27 01 Nov 13:13:10 13:17:18 24° 60° (ENE) 13:21:27 436.795 MHz FM
Oscar 16 01 Nov 13:20:02 13:25:04 57° 70° (ENE) 13:30:06 437.025 USB, Beacon 2401.1428
UOSAT-12 01 Nov 13:33:59 13:38:39 83° 126° (SE) 13:43:25 437.025 FM, 437.400 FM
HO-68 01 Nov 13:34:13 13:35:06 10° 323° (NW) 13:35:58 435.675 MHz FM
Gurwin Techsat 1B 01 Nov 13:35:31 13:39:26 21° 59° (ENE) 13:43:21 435.225 FM
TMSAT-1 01 Nov 13:41:33 13:45:06 19° 57° (ENE) 13:48:40 436.925 FM
KITSAT 1 01 Nov 13:42:19 13:49:31 34° 328° (NNW) 13:56:45 435.175 FM
AO-Echo 01 Nov 13:45:35 13:50:27 51° 69° (ENE) 13:55:30 ?
JAS-1B 01 Nov 13:47:00 13:52:42 84° 73° (ENE) 13:58:34 435.800 - 435.900 CW/SSB
Uribyol 2 01 Nov 13:55:05 14:00:09 53° 69° (ENE) 14:05:15 436.500 FM
Saudisat 1A 01 Nov 13:56:52 14:01:15 58° 48° (NE) 14:05:37 436.775 MHz
AO-7 01 Nov 13:58:49 14:04:13 20° 42° (NE) 14:09:37 29.400 - 29.500 MHz
ITAMSAT 1 01 Nov 14:03:18 14:08:25 59° 70° (ENE) 14:13:34 435.822 SSB
Oscar 19 01 Nov 14:12:03 14:17:05 54° 260° (W) 14:22:08 437.125 CW, 437.150 USB
SO-50 01 Nov 14:41:27 14:43:34 13° 343° (NNW) 14:45:43 436.795 FM
ISS 01 Nov 14:48:31 14:51:49 58° 16° (NNE) 14:55:07 145.800 FM
AO-27 01 Nov 14:51:20 14:56:28 56° 259° (W) 15:01:38 436.795 MHz FM
Oscar 16 01 Nov 15:00:53 15:04:47 21° 268° (W) 15:08:41 437.025 USB, Beacon 2401.1428
Gurwin Techsat 1B 01 Nov 15:13:38 15:18:55 67° 258° (WSW) 15:24:14 435.225 FM
UOSAT-12 01 Nov 15:15:39 15:19:23 23° 328° (NNW) 15:23:10 437.025 FM, 437.400 FM
TMSAT-1 01 Nov 15:19:07 15:24:25 79° 256° (WSW) 15:29:46 436.925 FM
AO-Echo 01 Nov 15:25:28 15:29:31 24° 268° (W) 15:33:42 ?
Uribyol 2 01 Nov 15:35:46 15:39:56 24° 267° (W) 15:44:08 436.500 FM
Saudisat 1A 01 Nov 15:37:09 15:40:28 21° 246° (WSW) 15:43:45 436.775 MHz
Uosat F 01 Nov 15:38:52 15:43:10 29° 63° (ENE) 15:47:29 435.120 FM
JAS-1B 01 Nov 15:41:29 15:44:23 14° 274° (W) 15:47:19 435.800 - 435.900 CW/SSB
KITSAT 1 01 Nov 15:41:52 15:47:43 21° 357° (N) 15:53:34 435.175 FM
ITAMSAT 1 01 Nov 15:44:20 15:48:18 22° 268° (W) 15:52:17 435.822 SSB
AO-7 01 Nov 15:47:23 15:55:31 65° 64° (ENE) 16:03:42 29.400 - 29.500 MHz
